Regional Weather Roundup
Issued by NWS Pendleton, OR

Home | Current Version | Previous Version | Text Only | Print | Product List | Glossary On
Versions: 1 2 3 4 5 6 7 8 9 10 11 12 13 14 15 16 17 18 19 20 21 22 23 24 25 26 27 28 29 30 31 32 33 34 35 36 37 38 39 40 41 42 43 44 45 46 47 48 49 50
378
ASUS46 KPDT 280525
RWRPDT
PENDLETON REGIONAL WEATHER ROUNDUP
NATIONAL WEATHER SERVICE PENDLETON OREGON
1000 PM PDT MON MAR 27 2017

NOTE: FAIR INDICATES FEW OR NO CLOUDS BELOW 12,000 FEET WITH NO
SIGNIFICANT WEATHER AND/OR OBSTRUCTIONS TO VISIBILITY.

# INDICATES UNOFFICIAL STATION AND DATA

WAZ520-280610-
EAST SLOPES OF WASHINGTON CASCADES

CITY            SKY/WX      TMP DP  RH  WIND    PRES   REMARKS
#CLE ELUM HS    N/A         39  34  82  CALM    30.13R
#CLE ELUM LAKE  N/A         37  33  85  CALM    30.20R
#GLENWOOD       N/A         41  37  86  S6      30.24S
#NELSON 3SW     N/A         33  32  96  CALM    30.44R
#NILE           N/A         35  32  89  CALM    29.47R
#TEANAWAY 4NE   N/A         39  36  89  CALM    N/A
#TROUT LAKE 1NE N/A         39  36  89  CALM    30.28R
#TROUT LAKE 1E  N/A         35  34  96  CALM    30.26R
$$

WAZ521-280610-
SIMCOE HIGHLANDS

CITY            SKY/WX      TMP DP  RH  WIND    PRES   REMARKS
#BICKLETON HS   N/A         37  34  89  W13     30.21S WCI 29
#CENTERVILLE 1SWN/A         41  35  79  W10     30.23R
#GOLDENDALE 1NE N/A         42  27  55  SW2     N/A
#GOLDENDALE 4W  N/A         42  20  41  SW6     30.26R
#GOODNOE HILLS  N/A         44  34  68  SW15G26 30.14R WCI 37
#LYLE 6NE       N/A         42  38  86  W9      30.24R
#PITT 4SE       N/A         38  35  89  SW6     30.30R
$$

WAZ026-280610-
KITTITAS VALLEY

CITY            SKY/WX      TMP DP  RH  WIND    PRES   REMARKS
ELLENSBURG AP   MOCLDY      41  33  73  CALM    30.17R
#ELLENSBURG CWU N/A         42  35  76  N6      30.14R
#ELLENSBURG 3NE N/A         39  34  82  CALM    28.24R
#ELLENSBURG 1E  N/A         40  N/A N/A N1      N/A
#ELLENSBURG 13S N/A         41  34  76  CALM    N/A
#KITTITAS 4N    N/A         40  32  73  W5      30.18R
#KITTITAS 3S    N/A         40  36  85  NW6     30.19R
#THORP 6N       N/A         38  34  85  N16     30.21R WCI 29
$$

WAZ027-280610-
YAKIMA VALLEY

CITY            SKY/WX      TMP DP  RH  WIND    PRES   REMARKS
SUNNYSIDE AP    CLOUDY      44  34  68  CALM    30.21R
YAKIMA AIRPORT  MOCLDY      47  33  58  CALM    30.18R
YAKIMA-VAGABOND CLEAR       43  31  62  E3      30.16R
#DONALD 2NE     N/A         59   3  10  S14     28.91S
#GRANDVIEW      N/A         46  32  58  CALM    30.23R
#MABTON         N/A         47  37  68  W2      30.20R
#MOXEE 2E       N/A         43   0  16  NE3     30.13R
#NACHES 2SW     N/A         43  34  70  W5      30.05S
#TERRACE HTS    N/A         44  33  65  CALM    30.17R
#TOPPENISH      N/A         48  36  63  CALM    30.12R
#WEST VALLEY    N/A         47  33  58  CALM    30.18R
#W YAKIMA       N/A         46  33  60  W3      30.20R
#WHITE SWAN 5E  N/A         48  36  63  SW9     30.19R
#WILEY CITY 3W  N/A         40  31  70  CALM    30.14R
$$

WAZ028-280610-
LOWER COLUMBIA BASIN...WASHINGTON

CITY            SKY/WX      TMP DP  RH  WIND    PRES   REMARKS
PASCO           MOCLDY      49  36  61  SW17    30.20R WCI 43
PROSSER AWOS    N/A         43  36  76  CALM    30.24R
RICHLAND AWOS   MOCLDY      50  37  61  W8      30.21R
#BENTON CITY    N/A         46  35  65  W2      30.12R
#CONNELL 5N     N/A         43  37  79  W3      30.17R
#CONNELL 5NW    N/A         42  37  82  W2      30.12R
#ELTOPIA 6NW    N/A         46  37  71  SW1     29.14R
#KAHLOTUS       N/A         46  37  71  NW24G31 30.16R WCI 38
#KENNEWICK 3S   N/A         46  38  73  S7      30.20R
#PATERSON       N/A         47  40  76  NW8     30.22R
#SAGEMOOR 2W    N/A         45  37  73  W5      30.06R
#TOUCHET 2S     N/A         48  38  68  SW21    30.18R WCI 41
#WEST PASCO     N/A         49  37  63  SW6     30.21R
$$

WAZ029-280610-
FOOTHILLS OF THE BLUES...WASHINGTON

CITY            SKY/WX      TMP DP  RH  WIND    PRES   REMARKS
WALLA WALLA AP  MOCLDY      47  37  68  S14     30.22R WCI 41
#CLYDE 6NW      N/A         45  37  73  SW9     30.19R
#DAYTON SCHOOL  N/A         47  29  49  S7      30.22R
#LOWDEN 2SE     N/A         48  38  68  W7      30.19R
#PLEASANT VIEW 1N/A         40  36  85  S10     30.24R
#PRESCOTT       N/A         47  39  74  CALM    30.21R
#WHITMAN COLLEGEN/A         47  38  71  SE3     30.29R
#WAITSBURG 5S   N/A         44  37  76  S8      30.32R
#WAITSBURG 8N   N/A         42  N/A N/A S9      30.14R
#WALLA WALLA 5E N/A         48  38  68  S15     N/A    WCI 42
#WALLA WALLA U  N/A         49  38  66  CALM    30.23R
#WHITMAN MISSIONN/A         48  38  68  SW7     30.24R
$$

WAZ030-280610-
BLUE MOUNTAINS...WASHINGTON

CITY            SKY/WX      TMP DP  RH  WIND    PRES   REMARKS
#DIXIE 5SE      N/A         41  32  70  SW15G30 30.12R WCI 33
$$

ORZ009-041-WAZ024-280610-
COLUMBIA RIVER GORGE

CITY            SKY/WX      TMP DP  RH  WIND    PRES   REMARKS
HOOD RIVER AP   CLOUDY      45  39  79  NW6     30.29R
THE DALLES AP   CLOUDY      50  39  66  NW13    30.27R
#ARLINGTON AIRPON/A         46  38  73  W12     30.26R WCI 40
#CELILO DOT     N/A         49  34  56  SW9     N/A
#LYLE           N/A         49  41  74  NW9     30.29R
#MOSIER 1S      N/A         44  30  58  CALM    30.27R
#MURDOCK        N/A         49  40  71  N3      30.25R
#RUFUS DOT      N/A         49  39  68  W10     N/A
#SMITHVILLE     N/A         47  42  83  N9      30.24R

$$

ORZ510-280610-
NORTH CENTRAL OREGON

CITY            SKY/WX      TMP DP  RH  WIND    PRES   REMARKS
#ANTELOPE       N/A         35  30  82  CALM    30.16R
#CHENOWITH 1W   N/A         40  37  89  W21     N/A    WCI 30
#COW CYN RST AREN/A         39  31  73  W5      N/A
#DUFUR          N/A         39  35  85  CALM    30.23R
#DUFUR 9E       N/A         39  35  85  CALM    30.33R
#GRASS VALLEY 1SN/A         36  32  85  W1      30.35R
#KENT DOT       N/A         38  29  70  N12     N/A    WCI 30
#MAUPIN SCHOOL  N/A         47  36  65  W2      30.31R
#MORO SCHOOL    N/A         42  40  93  W2      30.31R
#SHANIKO 5WSW   N/A         37  25  61  N10     N/A
#SHANIKO 4NW    N/A         36  30  79  W13     30.19F WCI 27
#TYGH VALLEY 2NEN/A         45  36  70  N3      30.25R
#WAPANITIA AIRPON/A         41  34  76  CALM    30.29R
#WASCO DOT      N/A         41  35  79  SW2     N/A
#WASCO 5NE      N/A         41  36  82  W7      30.25F
$$

ORZ511-280610-
CENTRAL OREGON

CITY            SKY/WX      TMP DP  RH  WIND    PRES   REMARKS
BEND AIRPORT    PTCLDY      37  30  75  CALM    30.24R
MADRAS AIRPORT  CLOUDY      39  30  70  CALM    30.27R
PRINEVILLE AP   MOCLDY      30  28  92  CALM    30.25R
REDMOND AIRPORT PTCLDY      34  27  75  CALM    30.24R
#ASHWOOD SCHOOL N/A         36  31  82  CALM    30.20R
#BEND 1SW       N/A         37  31  79  SW2     N/A
#BEND-AWBREY    N/A         37  30  75  SW2     30.29R
#BEND-KIM LN    N/A         38  31  76  S2      30.23R
#CULVER         N/A         38  30  73  CALM    30.21R
#CULVER 8W      N/A         40  32  73  W2      30.23R
#POWELL BUTTE   N/A         36  28  72  S3      30.17R
#PRINEVILLE     N/A         37  30  75  E1      30.39R
#PRINEVILLE 3N  N/A         36  30  79  E3      30.29R
#WARM SPRINGS   N/A         45  34  65  CALM    30.22R

$$


ORZ509-280610-
EAST SLOPES OF OREGON CASCADES

CITY            SKY/WX      TMP DP  RH  WIND    PRES   REMARKS
SISTERS AWOS    N/A         39  30  70  SW9     30.19R
#BLUE BOX PASS  N/A         32  N/A N/A NW2     N/A
#CAMP SHERMAN   N/A         39  31  73  N2      30.35F
#LA PINE DOT    N/A         37  27  67  W2      N/A
#LA PINE 4SW    N/A         34  28  78  W1      30.24R
#LA PINE 4NW    N/A         33  28  82  CALM    30.37R
#LAVA BUTTE DOT N/A         33  26  75  CALM    N/A
#SISTERS 3N     N/A         39  26  59  W8      30.32R
#SUNRIVER       N/A         36  30  79  S3      30.33R
#TUMALO 3W      N/A         35  29  78  CALM    30.16R
#WANOGA BUTTE D N/A         29  23  78  W6      N/A

$$

ORZ044-280610-
LOWER COLUMBIA BASIN...OREGON

CITY            SKY/WX      TMP DP  RH  WIND    PRES   REMARKS
HERMISTON       CLOUDY      48  37  65  SW13    30.23R WCI 43
#BOARDMAN SCHOOLN/A         49  38  66  S10     30.23R
#BOARDMAN 8SW   N/A         47  39  74  SW12    30.25R WCI 42
#ECHO 8SW       N/A         47  38  71  W7      30.24R
#I-84 EX 198 DOTN/A         44  37  76  N16     N/A    WCI 37
#IONE SCHOOL    N/A         46  28  49  SW12    30.28R WCI 40
#UMATILLA       N/A         49  36  61  SW12    30.15R WCI 44
$$

ORZ507-280610-
NORTHERN FOOTHILLS OF THE BLUES

CITY            SKY/WX      TMP DP  RH  WIND    PRES   REMARKS
PENDLETON AIRPT MOCLDY      44  36  73  SW9     30.23R
#ADAMS 3WNW     N/A         39  35  85  CALM    30.25R
#ATHENA         N/A         43  37  79  S5      30.27R
#CAYUSE         N/A         45  36  70  SW8     30.24R
#HELIX SCHOOL   N/A         42  37  82  N10     30.24R
#HELIX 3N       N/A         41  36  82  SW14    30.18R WCI 33
#HOLDMAN 5SE    N/A         41  37  86  S3      30.21R
#HOLDMAN 6E     N/A         42  37  82  S9      30.04R
#M-F FERNDALE   N/A         48  35  60  SW1     30.20R
#M-F GROVE ELEM N/A         47  35  63  S5      30.19R
#M-FREEWATER 5SEN/A         47  36  65  SW5     30.22R
#PENDLETON DNTN N/A         48  31  51  SW1     30.25R
#PDT AQUATIC CTRN/A         45  34  65  CALM    30.26R
#PDT SUNRIDGE   N/A         44  37  76  CALM    30.26R
#PENDLETON 7NW  N/A         44  36  73  SW7     25.80S
#PILOT ROCK 1S  N/A         42  30  62  CALM    30.23R
#PILOT ROCK     N/A         43  35  73  SW2     30.25R
#TUTUILLA       N/A         45  37  73  S6      30.26R
#UMAPINE 2E     N/A         48  38  68  SW3     30.20R
#WESTON SCHOOL  N/A         44  34  68  W8      30.24R

$$

ORZ508-280610-
SOUTHERN FOOTHILLS OF THE BLUES

CITY            SKY/WX      TMP DP  RH  WIND    PRES   REMARKS
LEXINGTON       MOCLDY      43  37  79  S6      30.28R
#AJAX           N/A         40  29  64  CALM    30.37R
#CONDON SCHOOL  N/A         39  34  82  W2      30.16R
#CONDON 5W      N/A         36  30  79  W7      30.19R
#HEPPNER EOC    N/A         39  34  82  CALM    30.21R
#HEPPNER 4NE    N/A         38  34  85  SW6     30.27R
#LEXINGTON 2SE  N/A         42  36  79  CALM    30.23R
#MIKKALO        N/A         42  34  73  W1      30.33R
#OLEX 4N        N/A         44  38  79  SW9     30.22R
#RUGGS 5NE      N/A         36  33  89  E1      30.40R
#RUGGS 2SW      N/A         37  33  85  SW3     30.29R

$$

ORZ502-503-280610-
BLUE MOUNTAINS

CITY            SKY/WX      TMP DP  RH  WIND    PRES   REMARKS
MEACHAM         LGT RAIN    34  31  89  CALM    30.21R
#BATTLE MTN DOT N/A         32  31  96  N1      N/A
#GREENHORN 9SW  N/A         32  30  92  CALM    26.39R
#HARDMAN 10S    N/A         35  31  85  CALM    30.40R
#HEPPNER 15SE   N/A         33  31  92  CALM    30.20S
#LADD CYN SMT   N/A         33  33  100 CALM    N/A
#LADD CREEK ODOTN/A         34  33  96  SW2     N/A
#LONG CREEK HS  N/A         36  33  89  CALM    N/A
#N POWDER DOT   N/A         35  33  92  N7      N/A
#PIKES PEAK     N/A         38  31  76  W20G28  27.99S WCI 28
#TOLLGATE       N/A         30  29  96  SW6     30.01R
#TROY SCHOOL    N/A         42  34  73  CALM    30.08R
#UKIAH          N/A         34  32  92  CALM    30.17R
#WESTON 4E      N/A         38  34  85  SW7     30.24R
$$

ORZ505-280610-
JOHN DAY BASIN

CITY            SKY/WX      TMP DP  RH  WIND    PRES   REMARKS
JOHN DAY        MOCLDY      37  34  89  CALM    30.23R
#JOHN DAY KJDY  N/A         37  N/A N/A CALM    29.93R
#ANTELOPE 9ESE  N/A         41  33  73  CALM    N/A
#DAYVILLE SCHOOLN/A         41  28  59  CALM    30.18R
#MITCHELL       N/A         36  30  79  CALM    30.38R
#MITCHELL 8NW   N/A         39  26  59  SW2     30.21R
#MONUMENT HS    N/A         41  34  76  CALM    30.18R
#MT. VERNON 5SE N/A         34  28  78  CALM    30.16R
#SPRAY SCHOOL   N/A         41  N/A N/A CALM    N/A
#WINLOCK        N/A         35  29  78  CALM    30.18R
$$

ORZ506-280610-
OCHOCO AND JOHN DAY HIGHLANDS

CITY            SKY/WX      TMP DP  RH  WIND    PRES   REMARKS
#HORSE RIDGE DO N/A         35  26  69  W6      N/A
#PAULINA SCHOOL N/A         36  28  72  W6      N/A
#PINE MTN OBS   N/A         28  24  85  CALM    N/A
#PRAIRIE CITY   N/A         32  28  85  CALM    30.38R
#SENECA 9NW     N/A         29  27  92  CALM    30.26R
$$

ORZ049-280610-
GRANDE RONDE VALLEY

CITY            SKY/WX      TMP DP  RH  WIND    PRES   REMARKS
LA GRANDE       CLOUDY      36  32  85  CALM    30.23R
#COVE           N/A         37  36  96  NE1     30.24R
#COVE SCHOOL    N/A         37  34  89  CALM    30.22R
#COVE 6NW       N/A         36  33  89  CALM    30.28R
#ELGIN 3N       N/A         38  31  76  S2      30.19R
#ELGIN 1E       N/A         40  35  82  CALM    N/A
#IMBLER SCHOOL  N/A         37  35  92  CALM    30.17R
#ISLAND CITY 4N N/A         45  43  93  CALM    30.32R
#LADD CYN DOT   N/A         37  36  96  SE8     N/A
#UNION 1S       N/A         38  34  85  CALM    30.27R
$$

ORZ050-280610-
WALLOWA COUNTY

CITY            SKY/WX      TMP DP  RH  WIND    PRES   REMARKS
JOSEPH AIRPORT  CLOUDY      34  32  92  S6      30.21R
#IMNAHA SCHOOL  N/A         45  38  76  CALM    30.21R
#IMNAHA 10S     N/A         52  33  48  S7      29.84S
#JOSEPH 3N      N/A         34  27  75  CALM    30.21R
#JOSEPH 3W      N/A         30  30  100 CALM    30.02R
#LOSTINE        N/A         34  31  89  CALM    30.06R
#LOSTINE 3SE    N/A         33  31  92  CALM    30.25R
#MT HOWARD 8000 N/A         20  18  92  NW1     30.09R
#PROMISE 1S     N/A         38  31  76  E2      30.35R
#WALLOWA SCHOOL N/A         37  33  85  CALM    30.18R



$$



USA.gov is the U.S. government's official web portal to all federal, state and local government web resources and services.